Flag for Germany Weather past 2 weeks in Berlin, Berlin, Germany

46 °F

Passing clouds.

Feels Like: 39 °F
Forecast: 40 / 46 °F
Wind: 20 mph from West

Location: Berlin-Tegel

Current Time: Nov 30, 2015 at 2:01:28 AM

Latest Report: Nov 30, 2015 at 1:20 AM

Visibility: N/A

Pressure: 29.56 "Hg

Humidity: 82%

Dew point: 41 °F

Location of BerlinLocation

Historic Weather in Berlin — Graph


Berlin temperature yesterday

Maximum temperature yesterday: 50 °F (at 10:50 PM)
Minimum temperature yesterday: 34 °F (at 12:20 AM)
Average temperature yesterday: 42 °F

Past Weeks' High & Low Weather Summary

High57 °F (Nov 17, 8:20 PM)100% (Nov 15, 2:20 AM)30.21 "Hg (Nov 15, 2:20 AM)
Low27 °F (Nov 23, 11:20 PM)55% (Nov 19, 12:50 PM)29.33 "Hg (Nov 21, 1:50 PM)
Average42 °F86%29.76 "Hg
* Reported Nov 15 12:50 AM — Nov 30 12:50 AM, Berlin, Weather by CustomWeather, © 2015

Note: Actual official high and low records may vary slightly from our data, if they occured in-between our weather recording intervals... More about our weather records


Berlin weather history for previous 24 hours

Time TempWeatherWind HumidityBarometerVisibility
12:50 AM
Mon, Nov 30
46 °FPassing clouds.18 mph87%29.56 "HgN/A
11:50 PM
Sun, Nov 29
46 °FLight rain. Mostly cloudy.22 mph87%29.56 "HgN/A
11:20 PM45 °FRain showers. Passing clouds.28 mph81%29.59 "Hg2 mi
10:50 PM50 °FLight rain. Partly cloudy.21 mph82%29.50 "HgN/A
10:20 PM48 °FPassing clouds.21 mph87%29.53 "HgN/A
9:50 PM48 °FPartly cloudy.20 mph82%29.53 "HgN/A
9:20 PM48 °FPassing clouds.18 mph87%29.56 "HgN/A
8:50 PM48 °FPassing clouds.18 mph87%29.56 "HgN/A
8:20 PM46 °FPassing clouds.17 mph93%29.59 "HgN/A
7:50 PM46 °FPassing clouds.17 mph87%29.62 "HgN/A
7:20 PM45 °FDrizzle. Mostly cloudy.12 mph93%29.62 "HgN/A
6:50 PM45 °FLight rain. Overcast.15 mph93%29.62 "HgN/A
6:20 PM46 °FLight rain. Passing clouds.17 mph82%29.65 "HgN/A
5:50 PM45 °FMostly cloudy.14 mph87%29.65 "HgN/A
5:20 PM45 °FPassing clouds.12 mph87%29.68 "HgN/A
4:50 PM45 °FPassing clouds.13 mph87%29.68 "HgN/A
4:20 PM45 °FPassing clouds.12 mph87%29.68 "HgN/A
3:50 PM45 °FLight rain. Partly sunny.13 mph87%29.68 "HgN/A
3:20 PM45 °FLight rain. Partly sunny.15 mph87%29.71 "HgN/A
2:50 PM45 °FLight rain. Partly sunny.14 mph87%29.71 "HgN/A
2:20 PM46 °FLight rain. Partly sunny.16 mph76%29.71 "HgN/A
1:50 PM45 °FPartly sunny.16 mph81%29.71 "HgN/A
1:20 PM45 °FPartly sunny.17 mph81%29.71 "HgN/A
12:50 PM45 °FPartly sunny.15 mph76%29.71 "HgN/A
12:20 PM45 °FPartly sunny.15 mph76%29.71 "HgN/A
11:50 AM45 °FPartly sunny.16 mph76%29.71 "HgN/A
11:20 AM43 °FPartly sunny.16 mph81%29.71 "HgN/A
10:50 AM43 °FBroken clouds.15 mph81%29.74 "HgN/A
10:20 AM43 °FPartly sunny.15 mph81%29.74 "HgN/A
9:50 AM41 °FBroken clouds.15 mph87%29.74 "HgN/A
9:20 AM41 °FBroken clouds.14 mph81%29.74 "HgN/A
8:50 AM41 °FPartly sunny.17 mph81%29.74 "HgN/A
8:20 AM41 °FPartly sunny.15 mph81%29.71 "HgN/A
7:50 AM41 °FPassing clouds.16 mph81%29.71 "HgN/A
7:20 AM41 °FPassing clouds.18 mph81%29.71 "HgN/A
6:50 AM39 °FPassing clouds.15 mph87%29.71 "HgN/A
6:20 AM39 °FLight rain. Partly cloudy.16 mph87%29.71 "HgN/A
5:50 AM39 °FLight rain. Passing clouds.17 mph87%29.74 "HgN/A
5:20 AM37 °FLight rain. Partly cloudy.16 mph87%29.74 "HgN/A
4:50 AM36 °FLight rain. Passing clouds.15 mph93%29.74 "Hg5 mi
4:20 AM36 °FLight rain. Passing clouds.16 mph87%29.77 "HgN/A
3:50 AM36 °FLight rain. Partly cloudy.14 mph87%29.77 "HgN/A
3:20 AM36 °FClear.14 mph87%29.80 "Hg10 mi
2:50 AM36 °FClear.12 mph87%29.80 "Hg10 mi
2:20 AM36 °FClear.13 mph87%29.80 "Hg10 mi
Weather by CustomWeather, © 2015

See weather overviewHow to use our weather pages